Hourly Weather Kiustendil

Today, 27 October, Tuesday

Time Temperature Precipitation Wind Pressure Humidity
00:00 +4°C° 0 mm 1 mps 622 mmHg 68%
01:00 +4°C° 0 mm 1 mps 622 mmHg 68%
02:00 +4°C° 0 mm 1 mps 622 mmHg 70%
03:00 +3°C° 0 mm 1 mps 621 mmHg 72%
04:00 +3°C° 0 mm 1 mps 621 mmHg 74%
05:00 +4°C° 0 mm 1 mps 622 mmHg 73%
06:00 +4°C° 0 mm 1 mps 622 mmHg 72%
07:00 +4°C° 0 mm 0 mps 622 mmHg 71%
08:00 +7°C° 0 mm 1 mps 623 mmHg 64%
09:00 +9°C° 0 mm 1 mps 624 mmHg 57%
10:00 +11°C° 0 mm 1 mps 624 mmHg 50%
11:00 +11°C° 0 mm 1 mps 624 mmHg 48%
12:00 +12°C° 0 mm 1 mps 624 mmHg 46%
13:00 +13°C° 0 mm 1 mps 624 mmHg 45%
14:00 +12°C° 0 mm 1 mps 624 mmHg 49%
15:00 +10°C° 0 mm 1 mps 623 mmHg 54%
16:00 +9°C° 0 mm 1 mps 622 mmHg 59%
17:00 +8°C° 0 mm 1 mps 622 mmHg 61%
18:00 +7°C° 0 mm 1 mps 622 mmHg 64%
19:00 +6°C° 0 mm 1 mps 622 mmHg 67%
20:00 +6°C° 0 mm 1 mps 622 mmHg 68%
21:00 +5°C° 0 mm 1 mps 622 mmHg 70%
22:00 +5°C° 0 mm 1 mps 622 mmHg 71%
23:00 +5°C° 0 mm 1 mps 622 mmHg 72%

Tomorrow, 28 October, Wednesday

Time Temperature Precipitation Wind Pressure Humidity
00:00 +4°C° 0 mm 1 mps 622 mmHg 74%
01:00 +4°C° 0 mm 1 mps 621 mmHg 75%
02:00 +4°C° 0 mm 1 mps 621 mmHg 76%
03:00 +3°C° 0 mm 1 mps 621 mmHg 77%
04:00 +3°C° 0 mm 1 mps 621 mmHg 78%
05:00 +4°C° 0 mm 1 mps 622 mmHg 77%
06:00 +4°C° 0 mm 1 mps 622 mmHg 76%
07:00 +4°C° 0 mm 1 mps 622 mmHg 75%
08:00 +6°C° 0 mm 1 mps 623 mmHg 70%
09:00 +8°C° 0 mm 1 mps 624 mmHg 64%
10:00 +9°C° 0 mm 1 mps 624 mmHg 58%
11:00 +10°C° 0 mm 1 mps 624 mmHg 56%
12:00 +11°C° 0 mm 1 mps 625 mmHg 53%
13:00 +12°C° 0 mm 1 mps 625 mmHg 51%
14:00 +11°C° 0 mm 1 mps 624 mmHg 55%
15:00 +10°C° 0 mm 1 mps 624 mmHg 60%
16:00 +9°C° 0 mm 1 mps 624 mmHg 64%
17:00 +8°C° 0 mm 1 mps 623 mmHg 69%
18:00 +6°C° 0 mm 2 mps 623 mmHg 73%
19:00 +4°C° 0 mm 2 mps 623 mmHg 78%
20:00 +4°C° 0 mm 2 mps 623 mmHg 80%
21:00 +5°C° 0 mm 1 mps 623 mmHg 82%
22:00 +4°C° 0 mm 1 mps 623 mmHg 85%
23:00 +4°C° 0 mm 1 mps 623 mmHg 86%

Day after tomorrow, 29 October, Thursday

Time Temperature Precipitation Wind Pressure Humidity
00:00 +4°C° 0 mm 1 mps 623 mmHg 88%
01:00 +3°C° 0 mm 1 mps 623 mmHg 89%
02:00 +3°C° 0 mm 1 mps 623 mmHg 90%
03:00 +3°C° 0 mm 1 mps 623 mmHg 91%
04:00 +3°C° 0 mm 1 mps 623 mmHg 91%
05:00 +3°C° 0 mm 1 mps 623 mmHg 91%
06:00 +3°C° 0 mm 1 mps 623 mmHg 90%
07:00 +4°C° 0 mm 1 mps 624 mmHg 90%
08:00 +5°C° 0 mm 1 mps 624 mmHg 81%
09:00 +7°C° 0 mm 1 mps 625 mmHg 73%
10:00 +9°C° 0 mm 1 mps 626 mmHg 64%
11:00 +10°C° 0 mm 1 mps 626 mmHg 60%
12:00 +10°C° 0 mm 1 mps 626 mmHg 57%
13:00 +10°C° 0 mm 2 mps 626 mmHg 53%
14:00 +10°C° 0 mm 1 mps 626 mmHg 58%
15:00 +9°C° 0 mm 1 mps 625 mmHg 62%
16:00 +8°C° 0 mm 1 mps 625 mmHg 67%
17:00 +7°C° 0 mm 1 mps 625 mmHg 72%
18:00 +6°C° 0 mm 1 mps 624 mmHg 77%
19:00 +5°C° 0 mm 1 mps 624 mmHg 82%
20:00 +4°C° 0 mm 1 mps 624 mmHg 82%
21:00 +4°C° 0 mm 1 mps 624 mmHg 82%
22:00 +3°C° 0 mm 0 mps 624 mmHg 82%
23:00 +4°C° 0 mm 1 mps 624 mmHg 81%

30 October, Friday

Time Temperature Precipitation Wind Pressure Humidity
00:00 +3°C° 0 mm 1 mps 624 mmHg 81%
01:00 +3°C° 0 mm 1 mps 624 mmHg 80%
02:00 +3°C° 0 mm 1 mps 624 mmHg 80%
03:00 +3°C° 0 mm 1 mps 624 mmHg 81%
04:00 +3°C° 0 mm 1 mps 624 mmHg 81%
05:00 +3°C° 0.1 mm 1 mps 625 mmHg 81%
06:00 +4°C° 0.1 mm 1 mps 625 mmHg 81%
07:00 +4°C° 0.1 mm 1 mps 625 mmHg 81%
08:00 +4°C° 0.7 mm 1 mps 626 mmHg 80%
09:00 +3°C° 0.7 mm 2 mps 626 mmHg 79%
10:00 +4°C° 0.7 mm 2 mps 626 mmHg 78%
11:00 +3°C° 0.2 mm 3 mps 626 mmHg 73%
12:00 +3°C° 0.2 mm 3 mps 626 mmHg 69%
13:00 +4°C° 0.2 mm 4 mps 626 mmHg 64%
14:00 +3°C° 0 mm 3 mps 626 mmHg 66%
15:00 +2°C° 0 mm 3 mps 626 mmHg 67%
16:00 +2°C° 0 mm 3 mps 626 mmHg 68%
17:00 0°C° 0 mm 3 mps 626 mmHg 72%
18:00 -1°C° 0 mm 2 mps 625 mmHg 76%
19:00 -2°C° 0 mm 2 mps 625 mmHg 79%
20:00 -3°C° 0 mm 2 mps 625 mmHg 80%
21:00 -3°C° 0 mm 2 mps 625 mmHg 82%
22:00 -3°C° 0 mm 2 mps 625 mmHg 83%
23:00 -3°C° 0 mm 2 mps 626 mmHg 82%

31 October, Saturday

Time Temperature Precipitation Wind Pressure Humidity
00:00 -3°C° 0 mm 2 mps 626 mmHg 82%
01:00 -3°C° 0 mm 2 mps 626 mmHg 81%
02:00 -4°C° 0 mm 2 mps 625 mmHg 83%
03:00 -4°C° 0 mm 2 mps 625 mmHg 86%
04:00 -3°C° 0 mm 1 mps 625 mmHg 88%
05:00 -2°C° 0 mm 1 mps 625 mmHg 86%
06:00 -2°C° 0 mm 1 mps 625 mmHg 85%
07:00 -2°C° 0 mm 1 mps 625 mmHg 84%
08:00 -2°C° 0 mm 2 mps 626 mmHg 74%
09:00 +1°C° 0 mm 2 mps 626 mmHg 64%
10:00 +2°C° 0 mm 2 mps 627 mmHg 54%
11:00 +3°C° 0 mm 2 mps 627 mmHg 51%
12:00 +3°C° 0 mm 3 mps 626 mmHg 49%
13:00 +3°C° 0 mm 3 mps 626 mmHg 46%
14:00 +2°C° 0 mm 3 mps 626 mmHg 55%
15:00 +2°C° 0 mm 2 mps 625 mmHg 63%
16:00 +2°C° 0 mm 2 mps 625 mmHg 72%
17:00 +1°C° 0 mm 2 mps 625 mmHg 77%
18:00 +1°C° 0 mm 1 mps 624 mmHg 82%
19:00 0°C° 0 mm 1 mps 624 mmHg 87%
20:00 0°C° 0.1 mm 1 mps 624 mmHg 88%
21:00 0°C° 0.1 mm 1 mps 624 mmHg 89%
22:00 0°C° 0.1 mm 1 mps 624 mmHg 90%
23:00 0°C° 0 mm 1 mps 624 mmHg 90%

1 November, Sunday

Time Temperature Precipitation Wind Pressure Humidity
00:00 -1°C° 0 mm 1 mps 624 mmHg 91%
01:00 -1°C° 0 mm 1 mps 624 mmHg 91%
02:00 -2°C° 0 mm 1 mps 623 mmHg 91%
03:00 -2°C° 0 mm 1 mps 623 mmHg 91%
04:00 -2°C° 0 mm 1 mps 623 mmHg 92%
05:00 -2°C° 0 mm 1 mps 623 mmHg 89%
06:00 -2°C° 0 mm 1 mps 623 mmHg 87%
07:00 -1°C° 0 mm 1 mps 623 mmHg 84%
08:00 0°C° 0 mm 1 mps 624 mmHg 75%
09:00 +1°C° 0 mm 2 mps 624 mmHg 65%
10:00 +3°C° 0 mm 2 mps 624 mmHg 55%
11:00 +2°C° 0 mm 3 mps 624 mmHg 51%
12:00 +3°C° 0 mm 3 mps 624 mmHg 47%
13:00 +3°C° 0 mm 3 mps 624 mmHg 43%
14:00 +2°C° 0 mm 3 mps 624 mmHg 48%
15:00 +1°C° 0 mm 3 mps 623 mmHg 52%
16:00 +1°C° 0 mm 2 mps 623 mmHg 57%
17:00 -1°C° 0 mm 2 mps 623 mmHg 64%
18:00 -2°C° 0 mm 2 mps 623 mmHg 71%
19:00 -4°C° 0 mm 2 mps 622 mmHg 77%
20:00 -4°C° 0 mm 2 mps 623 mmHg 79%
21:00 -4°C° 0 mm 2 mps 623 mmHg 80%
22:00 -4°C° 0 mm 2 mps 623 mmHg 82%
23:00 -5°C° 0 mm 2 mps 623 mmHg 83%
Show more